Weather History for KCIU - January, 2013

Change the Weather History Date:

Thursday, January 17, 2013

  Actual Average (KANJ) Record (KANJ)
Temperature  
Mean Temperature 6 °F 15 °F  
Max Temperature 15 °F 23 °F 44 °F (1913)
Min Temperature -2 °F 7 °F -24 °F (1982)
Degree Days  
Heating Degree Days 58 50  
Month to date heating degree days 838  
Since 1 July heating degree days 4097  
Moisture  
Dew Point 2 °F    
Average Humidity 83    
Maximum Humidity 100    
Minimum Humidity 58    
Precipitation  
Precipitation 0.00 in 0.07 in 0.59 in (1897)
Month to date precipitation 1.28  
Year to date precipitation 1.28  
Snow  
Snow 0.00 in 1.00 in 7.60 in (1979)
Month to date snowfall 17.8  
Since 1 July snowfall 68.0  
Snow Depth -    
Sea Level Pressure  
Sea Level Pressure 30.13 in    
Wind  
Wind Speed 11 mph (WNW)    
Max Wind Speed 20 mph    
Max Gust Speed 25 mph    
Visibility 7 miles    
Events      
T = Trace of Precipitation, MM = Missing Value Source: NWS Daily Summary

Daily Weather History Graph

Daily Weather History Graph

Search for Another Location

Airport or City:

Trip Planner

Search our weather history database for the weather conditions in past years. The results will help you decide how hot, cold, wet, or windy it might be!

Date:

Astronomy

Jan. 17, 2013 Rise Set
Actual Time 8:15 AM EST 5:21 PM EST
Civil Twilight 7:41 AM EST 5:54 PM EST
Nautical Twilight 7:04 AM EST 6:32 PM EST
Astronomical Twilight 6:28 AM EST 7:07 PM EST
Moon 10:56 AM EST (1/17) No Moon Set
Length of Visible Light 10h 13m
Length of Day
9h 06m
Waxing Crescent, 37% of the Moon is Illuminated
Jan 17
Waxing Crescent
Jan 18
First Quarter
Jan 26
Full
Feb 3
Last Quarter
Feb 10
New

Hourly Weather History & Observations

Time (EST) Temp. Windchill Dew Point Humidity Pressure Visibility Wind Dir Wind Speed Gust Speed Precip Events Conditions
12:15 AM 15.8 °F -1.1 °F 12.2 °F 86% 29.93 in 1.5 mi NW 19.6 mph 25.3 mph N/A   Overcast
12:35 AM 14.0 °F -0.8 °F 12.2 °F 93% 29.95 in 2.5 mi NW 13.8 mph 18.4 mph N/A   Overcast
12:55 AM 12.2 °F -5.3 °F 8.6 °F 85% 29.96 in 4.0 mi NW 18.4 mph 23.0 mph N/A   Mostly Cloudy
1:15 AM 12.2 °F -4.3 °F 6.8 °F 79% 29.99 in 7.0 mi NW 16.1 mph 21.9 mph N/A   Mostly Cloudy
1:35 AM 10.4 °F -5.4 °F 6.8 °F 85% 29.99 in 7.0 mi NNW 13.8 mph 20.7 mph N/A   Overcast
1:55 AM 10.4 °F -3.3 °F 8.6 °F 92% 30.02 in 1.5 mi North 10.4 mph - N/A   Overcast
2:15 AM 8.6 °F -5.5 °F 6.8 °F 92% 30.03 in 1.5 mi NNE 10.4 mph - N/A   Overcast
2:35 AM 6.8 °F -6.9 °F 5.0 °F 92% 30.04 in 1.8 mi NNE 9.2 mph - N/A   Overcast
2:55 AM 6.8 °F -6.9 °F 3.2 °F 85% 30.06 in 2.5 mi North 9.2 mph - N/A   Overcast
3:15 AM 6.8 °F -7.8 °F 3.2 °F 85% 30.07 in 2.0 mi North 10.4 mph - N/A   Overcast
3:35 AM 6.8 °F -4.8 °F 3.2 °F 85% 30.08 in 2.5 mi North 6.9 mph - N/A   Overcast
3:55 AM 5.0 °F -6.9 °F 1.4 °F 85% 30.09 in 3.0 mi NNE 6.9 mph - N/A   Overcast
4:15 AM 3.2 °F -10.3 °F 1.4 °F 92% 30.09 in 3.0 mi North 8.1 mph - N/A   Overcast
4:35 AM 3.2 °F -9.1 °F 1.4 °F 92% 30.10 in 3.0 mi NNE 6.9 mph - N/A   Overcast
4:55 AM 3.2 °F -9.1 °F -0.4 °F 85% 30.11 in 3.0 mi NNE 6.9 mph - N/A   Overcast
5:15 AM 1.4 °F -14.5 °F -0.4 °F 92% 30.11 in 5.0 mi NE 10.4 mph - N/A   Overcast
5:35 AM 1.4 °F -12.5 °F -2.2 °F 85% 30.12 in 5.0 mi NE 8.1 mph - N/A   Overcast
5:55 AM -0.4 °F -12.0 °F -2.2 °F 92% 30.13 in 4.0 mi NE 5.8 mph - N/A   Overcast
6:15 AM -0.4 °F -14.7 °F -2.2 °F 92% 30.13 in 5.0 mi ENE 8.1 mph - N/A   Overcast
6:35 AM -0.4 °F -13.4 °F -4.0 °F 85% 30.14 in 5.0 mi ENE 6.9 mph - N/A   Overcast
6:55 AM -0.4 °F -14.7 °F -5.8 °F 78% 30.15 in 9.0 mi ENE 8.1 mph - N/A   Overcast
7:15 AM -2.2 °F -16.8 °F -5.8 °F 85% 30.15 in 10.0 mi ENE 8.1 mph - N/A   Overcast
7:35 AM -2.2 °F -15.6 °F -5.8 °F 85% 30.16 in 9.0 mi ENE 6.9 mph - N/A   Overcast
7:55 AM -2.2 °F -15.6 °F -5.8 °F 85% 30.16 in 10.0 mi East 6.9 mph - N/A   Overcast
8:15 AM -2.2 °F -12.5 °F -5.8 °F 85% 30.18 in 10.0 mi East 4.6 mph - N/A   Overcast
8:35 AM -2.2 °F -14.2 °F -5.8 °F 85% 30.19 in 10.0 mi ESE 5.8 mph - N/A   Overcast
8:55 AM -2.2 °F -14.2 °F -5.8 °F 85% 30.19 in 7.0 mi East 5.8 mph - N/A   Overcast
9:15 AM -2.2 °F -14.2 °F -5.8 °F 85% 30.19 in 5.0 mi East 5.8 mph - N/A   Overcast
9:35 AM -0.4 °F -12.0 °F -7.6 °F 72% 30.21 in 5.0 mi East 5.8 mph - N/A   Overcast
9:55 AM -0.4 °F -13.4 °F -5.8 °F 78% 30.21 in 2.5 mi East 6.9 mph - N/A   Overcast
10:15 AM -0.4 °F -16.7 °F -5.8 °F 78% 30.20 in 3.0 mi East 10.4 mph - N/A   Overcast
10:35 AM 1.4 °F -11.3 °F -5.8 °F 72% 30.20 in 10.0 mi East 6.9 mph - N/A   Overcast
10:55 AM 1.4 °F -8.3 °F -2.2 °F 85% 30.20 in 10.0 mi ESE 4.6 mph - N/A   Overcast
11:15 AM 3.2 °F -7.8 °F -2.2 °F 78% 30.20 in 10.0 mi East 5.8 mph - N/A   Overcast
11:35 AM 5.0 °F -5.6 °F -0.4 °F 78% 30.18 in 10.0 mi ESE 5.8 mph - N/A   Overcast
11:55 AM 5.0 °F -6.9 °F -0.4 °F 78% 30.18 in 10.0 mi SE 6.9 mph - N/A   Overcast
12:15 PM 6.8 °F -3.5 °F -0.4 °F 72% 30.16 in 10.0 mi ESE 5.8 mph - N/A   Overcast
12:35 PM 6.8 °F -3.5 °F -0.4 °F 72% 30.15 in 10.0 mi SE 5.8 mph - N/A   Overcast
12:55 PM 8.6 °F -1.3 °F 1.4 °F 73% 30.15 in 10.0 mi ESE 5.8 mph - N/A   Overcast
1:15 PM 10.4 °F 2.2 °F 1.4 °F 67% 30.14 in 10.0 mi SE 4.6 mph - N/A   Overcast
1:35 PM 12.2 °F - 3.2 °F 67% 30.12 in 10.0 mi Calm Calm - N/A   Overcast
1:55 PM 14.0 °F 2.9 °F 3.2 °F 62% 30.11 in 10.0 mi WSW 8.1 mph - N/A   Overcast
2:15 PM 15.8 °F 4.2 °F 3.2 °F 58% 30.11 in 10.0 mi WSW 9.2 mph - N/A   Mostly Cloudy
2:35 PM 12.2 °F -1.0 °F 3.2 °F 67% 30.11 in 10.0 mi West 10.4 mph - N/A   Overcast
2:55 PM 12.2 °F -1.0 °F 6.8 °F 79% 30.11 in 10.0 mi West 10.4 mph - N/A   Mostly Cloudy
3:15 PM 12.2 °F -4.3 °F 6.8 °F 79% 30.11 in 10.0 mi West 16.1 mph 19.6 mph N/A   Mostly Cloudy
3:35 PM 12.2 °F -3.1 °F 3.2 °F 67% 30.11 in 10.0 mi West 13.8 mph 19.6 mph N/A   Overcast
3:55 PM 14.0 °F -0.2 °F 3.2 °F 62% 30.11 in 10.0 mi WSW 12.7 mph 19.6 mph N/A   Overcast
4:15 PM 14.0 °F -1.4 °F 5.0 °F 67% 30.11 in 10.0 mi West 15.0 mph 21.9 mph N/A   Overcast
4:35 PM 12.2 °F -3.1 °F 5.0 °F 73% 30.12 in 4.0 mi West 13.8 mph - N/A   Mostly Cloudy
4:55 PM 10.4 °F -3.3 °F 3.2 °F 73% 30.12 in 10.0 mi West 10.4 mph - N/A   Scattered Clouds
5:15 PM 10.4 °F -5.4 °F 3.2 °F 73% 30.13 in 9.0 mi WSW 13.8 mph 21.9 mph N/A   Mostly Cloudy
5:35 PM 10.4 °F -6.6 °F 5.0 °F 79% 30.13 in 9.0 mi West 16.1 mph 21.9 mph N/A   Overcast
5:55 PM 10.4 °F -2.4 °F 6.8 °F 85% 30.14 in 8.0 mi West 9.2 mph - N/A   Overcast
6:15 PM 8.6 °F -5.5 °F 6.8 °F 92% 30.15 in 5.0 mi WSW 10.4 mph - N/A   Overcast
6:35 PM 8.6 °F -6.3 °F 6.8 °F 92% 30.15 in 10.0 mi WSW 11.5 mph - N/A   Overcast
6:55 PM 8.6 °F -7.0 °F 6.8 °F 92% 30.16 in 3.0 mi West 12.7 mph - N/A   Overcast
7:15 PM 8.6 °F -6.3 °F 6.8 °F 92% 30.16 in 10.0 mi West 11.5 mph 18.4 mph N/A   Scattered Clouds
7:35 PM 8.6 °F -6.3 °F 5.0 °F 85% 30.17 in 10.0 mi West 11.5 mph - N/A   Partly Cloudy
7:55 PM 8.6 °F -5.5 °F 5.0 °F 85% 30.17 in 10.0 mi West 10.4 mph - N/A   Partly Cloudy
8:15 PM 8.6 °F -5.5 °F 5.0 °F 85% 30.18 in 8.0 mi WSW 10.4 mph 16.1 mph N/A   Mostly Cloudy
8:35 PM 6.8 °F -7.8 °F 3.2 °F 85% 30.18 in 10.0 mi WSW 10.4 mph - N/A   Mostly Cloudy
8:55 PM 6.8 °F -7.8 °F 3.2 °F 85% 30.19 in 8.0 mi West 10.4 mph 18.4 mph N/A   Overcast
9:15 PM 6.8 °F -7.8 °F 5.0 °F 92% 30.19 in 2.5 mi WSW 10.4 mph - N/A   Overcast
9:35 PM 6.8 °F -7.8 °F 5.0 °F 92% 30.19 in 3.0 mi WSW 10.4 mph - N/A   Overcast
9:55 PM 6.8 °F -8.6 °F 5.0 °F 92% 30.19 in 2.5 mi WSW 11.5 mph 16.1 mph N/A   Overcast
10:15 PM 6.8 °F -8.6 °F 5.0 °F 92% 30.20 in 3.0 mi WSW 11.5 mph 17.3 mph N/A   Overcast
10:35 PM 6.8 °F -7.8 °F 3.2 °F 85% 30.20 in 5.0 mi WSW 10.4 mph 17.3 mph N/A   Mostly Cloudy
10:55 PM 5.0 °F -10.8 °F 3.2 °F 92% 30.19 in 8.0 mi WSW 11.5 mph - N/A   Partly Cloudy
11:15 PM 5.0 °F -10.0 °F 3.2 °F 92% 30.19 in 10.0 mi WSW 10.4 mph - N/A   Clear
11:35 PM 5.0 °F -10.0 °F 3.2 °F 92% 30.19 in 10.0 mi WSW 10.4 mph - N/A   Clear
11:55 PM 3.2 °F -10.3 °F 3.2 °F 100% 30.20 in 10.0 mi WSW 8.1 mph - N/A   Scattered Clouds